Погода в Гверу

Зимбабве     19°28′36″S   29°47′48″E
темп.,
°C
ветер,
м/с
пор.,
м/с
влажн.,
%
обл.,
%
осадки,
мм/ч
давл.,
гПа
погр.,
м
10 августа, ср
ср1023:00+14юв512600 0.0 1021370
02:00+12вюв410720 0.0 1021259
05:00+10вюв38830 0.0 1022163
08:00+14вюв46660 0.0 1022253
11:00+25всв11230 0.0 10201341
14:00+27ююв22160 0.0 10162193
17:00+24юв45210 0.0 1016764
20:00+17юв410330 0.0 1019212
11 августа, чт
чт1123:00+15вюв411460 0.0 1020305
02:00+13вюв38600 0.0 1020151
05:00+12в24660 0.0 102152
08:00+16вюв35530 0.0 1022274
11:00+24юв33240 0.0 10201489
14:00+26юв43160 0.0 10161964
17:00+24юв35190 0.0 1016580
20:00+17юв410320 0.0 1019171
12 августа, пт
пт1223:00+15вюв39420 0.0 1020160
02:00+13в34500 0.0 101957
05:00+12св35590 0.0 101972
08:00+16с35470 0.0 1020212
11:00+26юз12220 0.0 10181608
14:00+28ю22140 0.0 10142334
17:00+25юв45150 0.0 1013482
20:00+18юв36250 0.0 101686
13 августа, сб
сб1323:00+16вюв35290 0.0 101776
02:00+15всв34390 0.0 101663
05:00+12ссв36480 0.0 101798
08:00+17с59422 0.0 1017260
11:00+26ссз33190 0.0 10141573
14:00+29ссз33130 0.0 10092332
17:00+27ссз34140 0.0 1008181
20:00+20с34220 0.0 101262
14 августа, вс
вс1423:00+17сз383044 0.0 1013121
02:00+15ссз36375 0.0 101392
05:00+14ссз344274 0.0 101353
08:00+19с4734100 0.0 1013216
11:00+28сз47160 0.0 10111916
14:00+31з35110 0.0 10073107
17:00+29юз46110 0.0 1007391
20:00+21ю34195 0.0 101259